Welcome to this demonstration website - Welkom op de demo website - Bienvenue sur ce site de démonstration - Willkommen auf dieser Demonstration Website


my webcam  My webcam


thunder radar more information blitzortung!


rain radar more information rain snow radar


visit our other weather sites:

Template documentation
and downloads

And another site



weather underground history page text

daily summary for june 18, 2018 units:  metric    english   both
« previous day
next day »
daily weekly monthly yearly custom
  current: high: low: average:
temperature: -6.2 °C -17.8 °C -9 °C -8 °C
dew point: -11.4 °C -17.8 °C -13.3 °C -11.8 °C
humidity: 55 % Humidity % 53 % 64 %
wind speed: 7.6 km/h 0 km/h 0 km/h 10.5 km/h
wind gust: 25.9 km/h 0 km/h - -
wind:East - - ESE
pressure: 34625.2 hPa 0 hPa 34554.1 hPa -
precipitation: 0 mm      
Historical Graphs
 
 
tabular data for june 18, 2018
time temperature dew point pressure wind wind speed wind gust humidity rainfall rate (hourly)
-17.8 °C -17.8 °C 0 hPa Calm     Humidity % 0 mm
00:04 -8.7 °C -13.3 °C 34591.4 hPa ESE 5.1 km/h 10.3 km/h 58 % 0 mm
00:09 -8.7 °C -13.3 °C 34577.8 hPa ESE 7.6 km/h 12.9 km/h 58 % 0 mm
00:14 -8.7 °C -13.3 °C 34591.4 hPa ESE 5.1 km/h 10.3 km/h 58 % 0 mm
00:19 -8.7 °C -13.3 °C 34591.4 hPa ESE 2.3 km/h 7.7 km/h 58 % 0 mm
00:24 -8.8 °C -13.2 °C 34591.4 hPa ESE 5.1 km/h 7.7 km/h 59 % 0 mm
00:29 -8.7 °C -13.2 °C 34591.4 hPa East 5.1 km/h 5.1 km/h 59 % 0 mm
00:34 -8.7 °C -13.3 °C 34591.4 hPa East 2.3 km/h 7.7 km/h 58 % 0 mm
00:39 -8.7 °C -13.2 °C 34591.4 hPa SE 2.3 km/h 5.1 km/h 59 % 0 mm
00:44 -8.8 °C -13.2 °C 34577.8 hPa East 5.1 km/h 10.3 km/h 59 % 0 mm
00:48 -8.7 °C -13.2 °C 34577.8 hPa ESE 7.6 km/h 7.7 km/h 59 % 0 mm
00:54 -8.7 °C -13.2 °C 34591.4 hPa ESE 5.1 km/h 7.7 km/h 59 % 0 mm
00:59 -8.8 °C -13.2 °C 34577.8 hPa Calm   7.7 km/h 59 % 0 mm
01:03 -8.8 °C -13.2 °C 34577.8 hPa East 5.1 km/h 5.1 km/h 59 % 0 mm
01:09 -8.8 °C -13.1 °C 34577.8 hPa East 2.3 km/h 5.1 km/h 60 % 0 mm
01:14 -8.8 °C -13.1 °C 34577.8 hPa Calm   5.1 km/h 60 % 0 mm
01:19 -8.8 °C -13 °C 34577.8 hPa ESE 7.6 km/h 7.7 km/h 61 % 0 mm
01:24 -8.8 °C -13.2 °C 34591.4 hPa East 5.1 km/h 7.7 km/h 60 % 0 mm
01:29 -8.8 °C -13.2 °C 34591.4 hPa East 7.6 km/h 7.7 km/h 60 % 0 mm
01:34 -8.8 °C -13.2 °C 34577.8 hPa ESE 5.1 km/h 7.7 km/h 60 % 0 mm
01:39 -8.8 °C -13.1 °C 34577.8 hPa ESE 7.6 km/h 7.7 km/h 60 % 0 mm
01:44 -8.8 °C -13.2 °C 34577.8 hPa East 2.3 km/h 7.7 km/h 60 % 0 mm
01:49 -8.8 °C -13 °C 34577.8 hPa Calm   5.1 km/h 61 % 0 mm
01:54 -8.8 °C -13 °C 34577.8 hPa ESE 5.1 km/h 10.3 km/h 61 % 0 mm
01:59 -8.8 °C -13.2 °C 34577.8 hPa ESE 5.1 km/h 10.3 km/h 60 % 0 mm
02:03 -8.8 °C -13 °C 34577.8 hPa East 5.1 km/h 10.3 km/h 61 % 0 mm
02:09 -8.8 °C -13 °C 34577.8 hPa East 12.7 km/h 12.9 km/h 61 % 0 mm
02:14 -8.8 °C -13 °C 34577.8 hPa East 5.1 km/h 10.3 km/h 61 % 0 mm
02:19 -8.8 °C -13 °C 34577.8 hPa ESE 7.6 km/h 10.3 km/h 61 % 0 mm
02:24 -8.8 °C -13 °C 34577.8 hPa ESE 5.1 km/h 10.3 km/h 61 % 0 mm
02:29 -8.8 °C -13 °C 34577.8 hPa ESE 7.6 km/h 12.9 km/h 61 % 0 mm
02:34 -8.8 °C -13 °C 34577.8 hPa SE 7.6 km/h 7.7 km/h 61 % 0 mm
02:39 -8.8 °C -12.9 °C 34567.7 hPa ESE 2.3 km/h 7.7 km/h 62 % 0 mm
02:44 -8.9 °C -12.9 °C 34577.8 hPa ESE 5.1 km/h 5.1 km/h 62 % 0 mm
02:49 -8.9 °C -12.9 °C 34567.7 hPa ESE 2.3 km/h 7.7 km/h 62 % 0 mm
02:54 -8.9 °C -13 °C 34567.7 hPa East 2.3 km/h 7.7 km/h 62 % 0 mm
02:59 -8.9 °C -13 °C 34577.8 hPa ESE 2.3 km/h 10.3 km/h 62 % 0 mm
03:04 -8.9 °C -13 °C 34577.8 hPa ESE 5.1 km/h 7.7 km/h 62 % 0 mm
03:09 -8.9 °C -12.9 °C 34567.7 hPa ESE 7.6 km/h 10.3 km/h 62 % 0 mm
03:14 -8.9 °C -12.9 °C 34577.8 hPa ESE 5.1 km/h 10.3 km/h 62 % 0 mm
03:19 -8.8 °C -12.9 °C 34577.8 hPa East 10.3 km/h 10.3 km/h 62 % 0 mm
03:24 -8.8 °C -12.9 °C 34567.7 hPa ESE 5.1 km/h 12.9 km/h 62 % 0 mm
03:29 -8.8 °C -12.8 °C 34577.8 hPa ESE 5.1 km/h 10.3 km/h 62 % 0 mm
03:34 -8.8 °C -12.9 °C 34567.7 hPa ESE 5.1 km/h 7.7 km/h 62 % 0 mm
03:39 -8.8 °C -12.7 °C 34567.7 hPa SE 7.6 km/h 7.7 km/h 63 % 0 mm
03:44 -8.9 °C -12.8 °C 34567.7 hPa ESE 2.3 km/h 10.3 km/h 63 % 0 mm
03:49 -8.9 °C -12.8 °C 34567.7 hPa SE 7.6 km/h 10.3 km/h 63 % 0 mm
03:54 -8.9 °C -12.8 °C 34567.7 hPa East 2.3 km/h 12.9 km/h 63 % 0 mm
03:58 -8.9 °C -12.8 °C 34567.7 hPa Calm   5.1 km/h 63 % 0 mm
04:04 -8.9 °C -12.8 °C 34567.7 hPa East 2.3 km/h 10.3 km/h 63 % 0 mm
04:09 -8.9 °C -12.8 °C 34567.7 hPa East 2.3 km/h 5.1 km/h 63 % 0 mm
04:14 -8.8 °C -12.7 °C 34567.7 hPa SE 5.1 km/h 10.3 km/h 63 % 0 mm
04:19 -8.8 °C -12.7 °C 34567.7 hPa East 7.6 km/h 7.7 km/h 63 % 0 mm
04:24 -8.8 °C -12.7 °C 34567.7 hPa Calm   10.3 km/h 63 % 0 mm
04:29 -8.8 °C -12.7 °C 34567.7 hPa East 5.1 km/h 10.3 km/h 63 % 0 mm
04:34 -8.8 °C -12.7 °C 34567.7 hPa ESE 5.1 km/h 10.3 km/h 63 % 0 mm
04:39 -8.8 °C -12.7 °C 34567.7 hPa ESE 5.1 km/h 15.6 km/h 63 % 0 mm
04:44 -8.8 °C -12.7 °C 34554.1 hPa ENE 10.3 km/h 10.3 km/h 63 % 0 mm
04:49 -8.8 °C -12.6 °C 34554.1 hPa East 7.6 km/h 10.3 km/h 64 % 0 mm
04:54 -8.8 °C -12.6 °C 34567.7 hPa East 5.1 km/h 5.1 km/h 64 % 0 mm
04:59 -8.9 °C -12.7 °C 34567.7 hPa ESE 2.3 km/h 7.7 km/h 64 % 0 mm
05:04 -8.8 °C -12.6 °C 34567.7 hPa ESE 10.3 km/h 15.6 km/h 64 % 0 mm
05:09 -8.9 °C -12.7 °C 34567.7 hPa ESE 7.6 km/h 10.3 km/h 64 % 0 mm
05:14 -8.9 °C -12.7 °C 34567.7 hPa ESE 2.3 km/h 12.9 km/h 64 % 0 mm
05:19 -8.9 °C -12.6 °C 34567.7 hPa ESE 2.3 km/h 10.3 km/h 65 % 0 mm
05:24 -8.9 °C -12.6 °C 34567.7 hPa SE 7.6 km/h 7.7 km/h 65 % 0 mm
05:29 -8.9 °C -12.6 °C 34567.7 hPa East 5.1 km/h 12.9 km/h 65 % 0 mm
05:34 -8.9 °C -12.6 °C 34567.7 hPa SE 10.3 km/h 10.3 km/h 65 % 0 mm
05:39 -8.9 °C -12.6 °C 34567.7 hPa SE 10.3 km/h 20.8 km/h 65 % 0 mm
05:44 -8.9 °C -12.6 °C 34567.7 hPa ESE 10.3 km/h 12.9 km/h 65 % 0 mm
05:49 -8.9 °C -12.6 °C 34567.7 hPa SE 7.6 km/h 15.6 km/h 65 % 0 mm
05:54 -8.9 °C -12.6 °C 34567.7 hPa East 7.6 km/h 12.9 km/h 65 % 0 mm
05:59 -8.9 °C -12.6 °C 34567.7 hPa ENE 12.7 km/h 12.9 km/h 65 % 0 mm
06:04 -8.9 °C -12.4 °C 34567.7 hPa ESE 12.7 km/h 12.9 km/h 66 % 0 mm
06:09 -9 °C -12.5 °C 34567.7 hPa ESE 10.3 km/h 15.6 km/h 66 % 0 mm
06:14 -9 °C -12.5 °C 34577.8 hPa SE 7.6 km/h 10.3 km/h 66 % 0 mm
06:19 -9 °C -12.5 °C 34577.8 hPa SE 15.6 km/h 15.6 km/h 66 % 0 mm
06:24 -8.9 °C -12.4 °C 34577.8 hPa ENE 10.3 km/h 12.9 km/h 66 % 0 mm
06:29 -8.9 °C -12.4 °C 34577.8 hPa ESE 5.1 km/h 10.3 km/h 66 % 0 mm
06:34 -8.8 °C -12.4 °C 34577.8 hPa East 10.3 km/h 12.9 km/h 66 % 0 mm
06:39 -8.8 °C -12.5 °C 34577.8 hPa SE 20.9 km/h 20.8 km/h 65 % 0 mm
06:44 -8.8 °C -12.3 °C 34577.8 hPa ESE 10.3 km/h 12.9 km/h 66 % 0 mm
06:49 -8.8 °C -12.3 °C 34577.8 hPa East 12.7 km/h 20.8 km/h 66 % 0 mm
06:54 -8.7 °C -12.3 °C 34577.8 hPa ESE 15.6 km/h 18.2 km/h 66 % 0 mm
06:59 -8.7 °C -12.3 °C 34577.8 hPa ESE 2.3 km/h 12.9 km/h 66 % 0 mm
07:04 -8.7 °C -12.1 °C 34577.8 hPa East 5.1 km/h 18.2 km/h 67 % 0 mm
07:09 -8.8 °C -12.1 °C 34577.8 hPa ESE 7.6 km/h 20.8 km/h 68 % 0 mm
07:14 -8.8 °C -11.9 °C 34577.8 hPa ESE 23 km/h 23.3 km/h 69 % 0 mm
07:19 -8.8 °C -12 °C 34577.8 hPa SE 2.3 km/h 20.8 km/h 69 % 0 mm
07:23 -8.8 °C -11.9 °C 34577.8 hPa ESE 12.7 km/h 18.2 km/h 70 % 0 mm
07:29 -8.8 °C -11.8 °C 34577.8 hPa ESE 10.3 km/h 20.8 km/h 70 % 0 mm
07:34 -8.7 °C -11.8 °C 34577.8 hPa ESE 7.6 km/h 15.6 km/h 70 % 0 mm
07:39 -8.7 °C -11.8 °C 34577.8 hPa ESE 10.3 km/h 18.2 km/h 70 % 0 mm
07:44 -8.7 °C -11.7 °C 34577.8 hPa ESE 15.6 km/h 20.8 km/h 70 % 0 mm
07:49 -8.6 °C -11.7 °C 34577.8 hPa ESE 26.2 km/h 31.1 km/h 69 % 0 mm
07:54 -8.6 °C -11.7 °C 34577.8 hPa ESE 12.7 km/h 28.5 km/h 69 % 0 mm
07:59 -8.4 °C -11.6 °C 34577.8 hPa SE 7.6 km/h 23.3 km/h 69 % 0 mm
08:04 -8.4 °C -11.6 °C 34577.8 hPa SE 17.9 km/h 36.2 km/h 69 % 0 mm
08:09 -8.4 °C -11.6 °C 34577.8 hPa East 12.7 km/h 25.9 km/h 69 % 0 mm
08:14 -8.4 °C -11.4 °C 34577.8 hPa East 10.3 km/h 25.9 km/h 70 % 0 mm
08:19 -8.4 °C -11.6 °C 34577.8 hPa ESE 17.9 km/h 31.1 km/h 69 % 0 mm
08:23 -8.3 °C -11.4 °C 34577.8 hPa ESE 12.7 km/h 23.3 km/h 69 % 0 mm
08:28 -8.3 °C -11.6 °C 34577.8 hPa ESE 12.7 km/h 20.8 km/h 68 % 0 mm
08:33 -8.2 °C -11.6 °C 34577.8 hPa SE 17.9 km/h 25.9 km/h 68 % 0 mm
08:39 -8.2 °C -11.6 °C 34577.8 hPa ESE 20.9 km/h 23.3 km/h 68 % 0 mm
08:44 -8.1 °C -11.4 °C 34577.8 hPa SE 5.1 km/h 12.9 km/h 68 % 0 mm
08:49 -8 °C -11.4 °C 34577.8 hPa ESE 12.7 km/h 18.2 km/h 67 % 0 mm
08:54 -7.9 °C -11.4 °C 34577.8 hPa ESE 10.3 km/h 20.8 km/h 67 % 0 mm
08:59 -7.9 °C -11.3 °C 34577.8 hPa East 5.1 km/h 25.9 km/h 67 % 0 mm
09:04 -7.7 °C -11.3 °C 34577.8 hPa ESE 10.3 km/h 18.2 km/h 66 % 0 mm
09:09 -7.7 °C -11.3 °C 34577.8 hPa ESE 12.7 km/h 23.3 km/h 66 % 0 mm
09:14 -7.7 °C -11.3 °C 34577.8 hPa ESE 20.9 km/h 23.3 km/h 66 % 0 mm
09:19 -7.7 °C -11.4 °C 34577.8 hPa ESE 10.3 km/h 23.3 km/h 65 % 0 mm
09:24 -7.7 °C -11.4 °C 34591.4 hPa East 20.9 km/h 20.8 km/h 65 % 0 mm
09:29 -7.7 °C -11.4 °C 34591.4 hPa East 10.3 km/h 23.3 km/h 65 % 0 mm
09:34 -7.7 °C -11.4 °C 34591.4 hPa SE 12.7 km/h 20.8 km/h 65 % 0 mm
09:39 -7.7 °C -11.3 °C 34591.4 hPa SE 20.9 km/h 25.9 km/h 66 % 0 mm
09:44 -7.6 °C -11.2 °C 34591.4 hPa ESE 2.3 km/h 15.6 km/h 66 % 0 mm
09:49 -7.4 °C -11.2 °C 34591.4 hPa ESE 7.6 km/h 20.8 km/h 65 % 0 mm
09:54 -7.4 °C -11.2 °C 34577.8 hPa East 7.6 km/h 28.5 km/h 65 % 0 mm
09:59 -7.4 °C -11.2 °C 34577.8 hPa East 17.9 km/h 28.5 km/h 65 % 0 mm
10:03 -7.4 °C -11.2 °C 34591.4 hPa ESE 7.6 km/h 18.2 km/h 65 % 0 mm
10:09 -7.4 °C -11.2 °C 34591.4 hPa ESE 15.6 km/h 33.6 km/h 65 % 0 mm
10:14 -7.6 °C -11.3 °C 34591.4 hPa ESE 26.2 km/h 38.8 km/h 65 % 0 mm
10:19 -7.6 °C -11.2 °C 34591.4 hPa SE 12.7 km/h 18.2 km/h 66 % 0 mm
10:24 -7.5 °C -11.1 °C 34591.4 hPa ESE 20.9 km/h 28.5 km/h 66 % 0 mm
10:29 -7.6 °C -11.2 °C 34591.4 hPa East 15.6 km/h 33.6 km/h 66 % 0 mm
10:34 -7.6 °C -11.1 °C 34601.5 hPa ESE 15.6 km/h 23.3 km/h 67 % 0 mm
10:39 -7.7 °C -11 °C 34601.5 hPa SE 17.9 km/h 28.5 km/h 68 % 0 mm
10:44 -7.7 °C -10.9 °C 34601.5 hPa ESE 10.3 km/h 18.2 km/h 69 % 0 mm
10:49 -7.7 °C -10.9 °C 34601.5 hPa ENE 20.9 km/h 28.5 km/h 69 % 0 mm
10:54 -7.6 °C -10.8 °C 34601.5 hPa SSE 10.3 km/h 25.9 km/h 69 % 0 mm
10:59 -7.4 °C -10.7 °C 34601.5 hPa ESE 7.6 km/h 18.2 km/h 69 % 0 mm
11:04 -7.5 °C -10.8 °C 34601.5 hPa East 12.7 km/h 23.3 km/h 68 % 0 mm
11:09 -7.6 °C -10.8 °C 34601.5 hPa ESE 20.9 km/h 23.3 km/h 69 % 0 mm
11:14 -7.6 °C -10.8 °C 34611.7 hPa East 7.6 km/h 31.1 km/h 69 % 0 mm
11:19 -7.6 °C -10.8 °C 34601.5 hPa ESE 17.9 km/h 25.9 km/h 69 % 0 mm
11:24 -7.7 °C -10.9 °C 34611.7 hPa East 12.7 km/h 28.5 km/h 69 % 0 mm
11:29 -7.7 °C -10.9 °C 34601.5 hPa SE 20.9 km/h 31.1 km/h 69 % 0 mm
11:34 -7.7 °C -10.9 °C 34611.7 hPa SE 23 km/h 36.2 km/h 69 % 0 mm
11:39 -7.7 °C -10.9 °C 34611.7 hPa SE 5.1 km/h 25.9 km/h 69 % 0 mm
11:44 -7.7 °C -10.9 °C 34611.7 hPa ESE 28.5 km/h 33.6 km/h 69 % 0 mm
11:49 -7.8 °C -11 °C 34611.7 hPa ESE 12.7 km/h 28.5 km/h 69 % 0 mm
11:54 -7.7 °C -10.8 °C 34601.5 hPa ESE 15.6 km/h 15.6 km/h 70 % 0 mm
11:59 -7.7 °C -10.9 °C 34601.5 hPa ESE 17.9 km/h 36.2 km/h 69 % 0 mm
12:04 -7.8 °C -11 °C 34611.7 hPa SSE 10.3 km/h 20.8 km/h 69 % 0 mm
12:09 -7.7 °C -10.9 °C 34611.7 hPa ESE 7.6 km/h 20.8 km/h 69 % 0 mm
12:14 -7.7 °C -10.9 °C 34611.7 hPa ESE 15.6 km/h 25.9 km/h 69 % 0 mm
12:19 -7.6 °C -10.9 °C 34611.7 hPa East 12.7 km/h 33.6 km/h 68 % 0 mm
12:24 -7.6 °C -10.9 °C 34611.7 hPa ESE 20.9 km/h 25.9 km/h 68 % 0 mm
12:29 -7.6 °C -10.9 °C 34611.7 hPa ESE 17.9 km/h 31.1 km/h 68 % 0 mm
12:34 -7.6 °C -10.9 °C 34611.7 hPa SE 28.5 km/h 31.1 km/h 68 % 0 mm
12:39 -7.5 °C -10.7 °C 34611.7 hPa ESE 15.6 km/h 28.5 km/h 69 % 0 mm
12:44 -7.2 °C -10.7 °C 34611.7 hPa SE 15.6 km/h 20.8 km/h 67 % 0 mm
12:49 -7.2 °C -10.8 °C 34611.7 hPa ESE 17.9 km/h 25.9 km/h 66 % 0 mm
12:54 -7.2 °C -10.8 °C 34611.7 hPa ESE 15.6 km/h 25.9 km/h 66 % 0 mm
12:59 -7.3 °C -10.9 °C 34611.7 hPa ESE 23 km/h 31.1 km/h 66 % 0 mm
13:04 -7.4 °C -10.6 °C 34611.7 hPa ESE 10.3 km/h 18.2 km/h 69 % 0 mm
13:09 -7.3 °C -10.7 °C 34611.7 hPa ESE 10.3 km/h 15.6 km/h 68 % 0 mm
13:14 -7.4 °C -10.8 °C 34611.7 hPa ESE 17.9 km/h 23.3 km/h 68 % 0 mm
13:19 -7.4 °C -10.8 °C 34611.7 hPa SE 12.7 km/h 25.9 km/h 68 % 0 mm
13:24 -7.3 °C -10.6 °C 34611.7 hPa ESE 12.7 km/h 18.2 km/h 68 % 0 mm
13:29 -6.9 °C -10.5 °C 34611.7 hPa ESE 10.3 km/h 12.9 km/h 66 % 0 mm
13:34 -6.8 °C -10.6 °C 34611.7 hPa ESE 5.1 km/h 15.6 km/h 65 % 0 mm
13:39 -6.9 °C -10.7 °C 34611.7 hPa ESE 12.7 km/h 20.8 km/h 65 % 0 mm
13:44 -7 °C -10.6 °C 34611.7 hPa ESE 2.3 km/h 15.6 km/h 66 % 0 mm
13:49 -6.9 °C -10.7 °C 34611.7 hPa SE 12.7 km/h 15.6 km/h 65 % 0 mm
13:54 -7.1 °C -10.7 °C 34611.7 hPa ESE 10.3 km/h 12.9 km/h 66 % 0 mm
13:59 -7.2 °C -10.5 °C 34611.7 hPa SE 5.1 km/h 15.6 km/h 68 % 0 mm
14:04 -7.2 °C -10.5 °C 34611.7 hPa ESE 7.6 km/h 18.2 km/h 68 % 0 mm
14:09 -6.9 °C -10.4 °C 34611.7 hPa ESE 12.7 km/h 23.3 km/h 67 % 0 mm
14:14 -6.8 °C -10.4 °C 34611.7 hPa East 12.7 km/h 15.6 km/h 66 % 0 mm
14:19 -6.7 °C -10.6 °C 34611.7 hPa ESE 10.3 km/h 28.5 km/h 64 % 0 mm
14:24 -6.8 °C -10.6 °C 34611.7 hPa ESE 7.6 km/h 20.8 km/h 65 % 0 mm
14:29 -6.8 °C -10.4 °C 34611.7 hPa SE 10.3 km/h 18.2 km/h 66 % 0 mm
14:34 -6.9 °C -10.4 °C 34611.7 hPa ESE 7.6 km/h 18.2 km/h 67 % 0 mm
14:39 -6.9 °C -10.4 °C 34611.7 hPa ESE 10.3 km/h 23.3 km/h 67 % 0 mm
14:44 -7 °C -10.5 °C 34625.2 hPa SE 7.6 km/h 18.2 km/h 67 % 0 mm
14:49 -7.1 °C -10.4 °C 34611.7 hPa South 7.6 km/h 28.5 km/h 68 % 0 mm
14:54 -6.9 °C -10.5 °C 34611.7 hPa ENE 23 km/h 23.3 km/h 66 % 0 mm
14:59 -6.3 °C -10.4 °C 34611.7 hPa ESE 26.2 km/h 33.6 km/h 63 % 0 mm
15:04 -6.3 °C -10.4 °C 34611.7 hPa SE 15.6 km/h 25.9 km/h 62 % 0 mm
15:09 -6.3 °C -10.6 °C 34611.7 hPa SE 31.4 km/h 38.8 km/h 61 % 0 mm
15:14 -6.3 °C -10.7 °C 34611.7 hPa ESE 23 km/h 38.8 km/h 60 % 0 mm
15:19 -6.6 °C -11 °C 34611.7 hPa ESE 10.3 km/h 46.7 km/h 60 % 0 mm
15:24 -6.6 °C -10.9 °C 34611.7 hPa SE 10.3 km/h 44.1 km/h 61 % 0 mm
15:29 -6.6 °C -10.9 °C 34611.7 hPa SE 7.6 km/h 18.2 km/h 61 % 0 mm
15:34 -6.3 °C -10.9 °C 34611.7 hPa NE 20.9 km/h 25.9 km/h 59 % 0 mm
15:39 -6.5 °C -11.1 °C 34611.7 hPa ESE 17.9 km/h 31.1 km/h 59 % 0 mm
15:44 -6.6 °C -11 °C 34611.7 hPa East 17.9 km/h 25.9 km/h 60 % 0 mm
15:49 -6.5 °C -11.1 °C 34611.7 hPa SE 7.6 km/h 33.6 km/h 59 % 0 mm
15:54 -6.3 °C -11.1 °C 34611.7 hPa ENE 17.9 km/h 25.9 km/h 58 % 0 mm
15:59 -6.3 °C -11.2 °C 34625.2 hPa SSE 12.7 km/h 25.9 km/h 57 % 0 mm
16:04 -6.1 °C -11.3 °C 34625.2 hPa South 10.3 km/h 23.3 km/h 55 % 0 mm
16:09 -5.8 °C -11.2 °C 34611.7 hPa SE 7.6 km/h 15.6 km/h 54 % 0 mm
16:14 -6 °C -11.4 °C 34625.2 hPa South 10.3 km/h 20.8 km/h 54 % 0 mm
16:19 -6.2 °C -11.6 °C 34625.2 hPa SSW 15.6 km/h 28.5 km/h 54 % 0 mm
16:24 -6.3 °C -11.4 °C 34625.2 hPa SSW 7.6 km/h 20.8 km/h 56 % 0 mm
16:29 -6.4 °C -11.6 °C 34625.2 hPa ESE 5.1 km/h 18.2 km/h 55 % 0 mm
16:34 -6.2 °C -11.4 °C 34625.2 hPa South 7.6 km/h 25.9 km/h 55 % 0 mm
16:39 -5.9 °C -11.3 °C 34625.2 hPa East 15.6 km/h 28.5 km/h 54 % 0 mm
16:44 -5.8 °C -11.4 °C 34611.7 hPa ESE 23 km/h 25.9 km/h 53 % 0 mm
16:49 -5.9 °C -11.4 °C 34611.7 hPa East 17.9 km/h 33.6 km/h 53 % 0 mm
16:54 -6.1 °C -11.6 °C 34611.7 hPa SE 15.6 km/h 25.9 km/h 53 % 0 mm
16:59 -6.1 °C -11.6 °C 34611.7 hPa East 17.9 km/h 31.1 km/h 53 % 0 mm
17:04 -6.2 °C -11.4 °C 34625.2 hPa East 7.6 km/h 25.9 km/h 55 % 0 mm
Demo MeteobridgePro
compliments of Weather Underground - 2.5 mb

script developed by  Jim McMurry - jmcmurry@mwt.net adapted for the template by  Wim van der Kuil - Leuven-Template.eu

you find our weather info also at:

Het Weer Aktueel

UK Metoffice

European Weather Network

WeatherCloud

Weather Underground

benelux weather network

AWEKAS

WeatherlinkIP

Citizen Weather Observer Program (CWOP)

HAMweather, WeatherForYou, PWS Weather

equipment we use:

weather-station
Davis VP2+
Meteostick connected

weather-program
Meteobridge

weather-server
MeteobridgePro

Davis VP2+<br />Meteostick connected

Meteobridge

MeteobridgePro